GW3748 Weather Reports


time (UTC)temp
C
wind
direction
speed
KPH
gust
KPH
rain 1hr
cm
rain 24hr
cm
rain mn
cm
humidity
%
barometer
mb
20260507201546 9 287 4.8 12.9 0.00 2.54 2.54 95 1002.5
20260507200059 9 261 6.4 19.3 0.00 2.54 2.54 94 1002.6
20260507194540 10 157 8.0 16.1 0.03 2.54 2.54 95 1002.4
20260507193045 10 242 6.4 17.7 0.03 2.54 2.54 95 1002.4
20260507191538 10 289 8.0 17.7 0.03 2.54 2.54 95 1002.2
20260507190039 10 262 4.8 19.3 0.00 2.54 2.51 95 1002.3
20260507184541 10 238 11.3 24.1 0.03 2.51 2.49 94 1002.1
20260507183038 12 238 8.0 12.9 0.08 2.51 2.49 93 1002.1
20260507181538 12 207 1.6 9.7 0.20 2.51 2.49 95 1001.4
20260507180050 11 80 6.4 12.9 0.25 2.51 2.49 95 1001.0
20260507174539 11 98 6.4 12.9 0.28 2.46 2.44 95 1001.4
20260507173046 11 124 4.8 12.9 0.36 2.41 2.39 95 1002.1
20260507171541 11 111 6.4 12.9 0.36 2.29 2.26 95 1002.4
20260507170039 11 122 6.4 12.9 0.48 2.24 2.24 95 1001.9
20260507164550 11 129 4.8 11.3 0.53 2.18 2.16 95 1002.6
20260507163038 11 179 3.2 11.3 0.53 2.01 1.98 95 1003.3
20260507161540 11 152 4.8 8.0 0.61 1.91 1.88 95 1003.6
20260507160040 11 150 1.6 9.7 0.69 1.75 1.73 95 1003.6
20260507154550 11 175 4.8 9.7 0.76 1.63 1.60 95 1004.2
20260507153038 11 195 3.2 11.3 0.91 1.45 1.42 95 1003.8
20260507151539 12 153 1.6 6.4 0.94 1.27 1.24 95 1004.2
20260507150043 12 233 3.2 12.9 0.69 1.02 1.02 95 1005.0
20260507144540 12 262 4.8 22.5 0.48 0.84 0.81 94 1004.9
20260507143039 12 225 8.0 22.5 0.18 0.53 0.51 94 1004.7
20260507141542 12 206 16.1 29.0 0.00 0.33 0.30 93 1004.4
20260507140045 12 245 12.9 27.4 0.00 0.33 0.30 93 1003.8
20260507134541 12 159 11.3 24.1 0.00 0.33 0.30 93 1003.7
20260507133055 12 146 12.9 29.0 0.00 0.33 0.30 93 1004.1
20260507131548 12 185 11.3 30.6 0.00 0.33 0.30 92 1004.4
20260507130054 12 164 12.9 27.4 0.00 0.33 0.30 92 1004.8
20260507124537 12 123 12.9 27.4 0.00 0.33 0.30 92 1005.0
20260507123040 12 175 16.1 30.6 0.00 0.33 0.30 92 1005.2
20260507121538 12 141 16.1 27.4 0.00 0.33 0.30 93 1005.1
20260507120051 12 153 12.9 27.4 0.00 0.33 0.30 93 1005.2
20260507114617 12 164 16.1 35.4 0.00 0.33 0.30 92 1005.4
20260507113042 12 198 17.7 35.4 0.00 0.33 0.30 93 1005.1
20260507111539 12 164 14.5 32.2 0.00 0.33 0.30 93 1005.5
20260507110039 12 160 16.1 37.0 0.00 0.33 0.30 93 1005.7
20260507104540 12 148 19.3 35.4 0.03 0.33 0.30 92 1005.9
20260507103035 12 207 16.1 32.2 0.08 0.33 0.30 92 1006.5
20260507101546 11 133 12.9 37.0 0.08 0.33 0.30 92 1005.7
20260507100043 11 77 19.3 38.6 0.08 0.30 0.28 92 1005.2
20260507094540 11 168 16.1 37.0 0.08 0.28 0.28 91 1006.1
20260507093042 12 198 20.9 35.4 0.03 0.25 0.23 89 1006.2
20260507091542 12 166 19.3 45.1 0.08 0.25 0.23 89 1006.0
20260507090047 12 162 12.9 27.4 0.08 0.23 0.20 88 1006.2
20260507084554 12 153 12.9 24.1 0.08 0.20 0.18 88 1007.0
20260507083038 12 140 11.3 25.7 0.10 0.20 0.18 88 1007.1
20260507081540 12 136 8.0 17.7 0.10 0.18 0.15 88 1007.4
20260507080048 12 144 6.4 14.5 0.08 0.15 0.13 88 1007.6
20260507074542 11 116 3.2 11.3 0.08 0.13 0.10 87 1007.8
20260507073040 12 151 4.8 14.5 0.03 0.08 0.08 86 1008.2
20260507071538 12 154 6.4 17.7 0.00 0.05 0.03 85 1008.5
20260507070038 11 146 8.0 17.7 0.00 0.05 0.03 85 1008.9
20260507064538 11 153 6.4 17.7 0.03 0.05 0.03 85 1009.4
20260507063038 11 194 6.4 16.1 0.03 0.05 0.03 85 1009.7
20260507061540 11 116 6.4 16.1 0.03 0.05 0.03 86 1009.5
20260507060039 12 144 4.8 20.9 0.00 0.03 0.00 84 1009.9
20260507054539 12 169 12.9 20.9 0.00 0.00 0.00 83 1010.9
20260507053044 12 167 11.3 30.6 0.00 0.00 0.00 81 1010.6
20260507051540 12 181 14.5 27.4 0.00 0.00 0.00 81 1011.5
20260507050038 12 165 17.7 29.0 0.00 0.00 0.00 81 1011.8
20260507044538 12 156 11.3 25.7 0.00 0.00 0.00 82 1011.5
20260507043038 12 193 12.9 24.1 0.00 0.00 0.00 83 1011.8
20260507041539 12 159 11.3 20.9 0.00 0.00 0.00 83 1012.2
20260507040048 12 178 14.5 25.7 0.00 0.00 0.00 83 1012.4
20260507034539 12 160 11.3 27.4 0.00 0.00 0.00 83 1012.3
20260507033039 12 71 9.7 24.1 0.00 0.00 0.00 82 1012.2
20260507031540 12 132 12.9 32.2 0.00 0.00 0.00 82 1012.5
20260507030039 12 122 9.7 20.9 0.00 0.00 0.00 82 1012.9
20260507024538 13 195 9.7 19.3 0.00 0.00 0.00 81 1013.6
20260507023047 13 165 11.3 22.5 0.00 0.00 0.00 81 1014.1
20260507021543 13 179 8.0 17.7 0.00 0.00 0.00 81 1014.5
20260507020104 13 193 9.7 20.9 0.00 0.00 0.00 81 1014.8
20260507014546 13 205 8.0 16.1 0.00 0.00 0.00 81 1015.0
20260507013049 13 143 1.6 12.9 0.00 0.00 0.00 80 1015.2
20260507011538 13 153 8.0 17.7 0.00 0.00 0.00 80 1015.4
20260507010039 13 160 3.2 12.9 0.00 0.00 0.00 80 1015.5
20260507004548 13 144 3.2 14.5 0.00 0.00 0.00 80 1015.7
20260507003044 14 165 4.8 17.7 0.00 0.00 0.00 79 1015.8
20260507001545 14 143 6.4 12.9 0.00 0.00 0.00 79 1015.7
20260507000038 14 162 9.7 17.7 0.00 0.00 0.00 79 1015.6
20260506234543 15 191 8.0 14.5 0.00 0.00 0.00 79 1015.5
20260506233046 15 175 11.3 22.5 0.00 0.00 0.00 79 1015.3
20260506231539 15 169 9.7 24.1 0.00 0.00 0.00 78 1015.1
20260506230046 16 145 8.0 20.9 0.00 0.00 0.00 78 1015.0
20260506224538 16 214 9.7 19.3 0.00 0.00 0.00 77 1015.2
20260506223043 16 234 12.9 27.4 0.00 0.00 0.00 76 1015.4
20260506221539 17 150 9.7 32.2 0.00 0.00 0.00 76 1015.2
20260506220045 17 205 19.3 30.6 0.00 0.00 0.00 75 1015.1
20260506214542 17 174 12.9 29.0 0.00 0.00 0.00 74 1014.9
20260506213051 17 168 14.5 40.2 0.00 0.00 0.00 73 1015.0
20260506211537 18 155 16.1 30.6 0.00 0.00 0.00 73 1014.8
20260506210045 18 156 20.9 43.5 0.00 0.00 0.00 71 1014.7
20260506204541 18 179 17.7 35.4 0.00 0.00 0.00 70 1014.6
20260506203040 19 188 19.3 37.0 0.00 0.00 0.00 68 1014.5